EJA150 KTEB-KFOK

Flight info

Callsign EJA150
Flight time N/A
Altitude 17000
Route BREZY V39 CMK T634 BETHA HTO
Aircraft C700/M-SBDGHM1RWXY/LB2

Departure

Time 2026-04-30 22:45
Airport Teterboro Airport (KTEB)

Arrival

Time N/A
Airport Francis S Gabreski Airport (KFOK)
Time Latitude Longitude Altitude Speed Heading
2026-04-30 22:31 40.85468 -74.06388 8 ft 0 kts 306°
2026-04-30 22:37 40.85449 -74.06352 9 ft 3 kts 292°
2026-04-30 22:37 40.85447 -74.06328 9 ft 2 kts 246°
2026-04-30 22:37 40.85452 -74.06317 9 ft 0 kts 219°
2026-04-30 22:41 40.85308 -74.06252 11 ft 10 kts 127°
2026-04-30 22:41 40.85202 -74.06085 10 ft 16 kts 183°
2026-04-30 22:42 40.84556 -74.06133 10 ft 30 kts 185°
2026-04-30 22:43 40.84202 -74.06163 11 ft 20 kts 182°
2026-04-30 22:43 40.84032 -74.06114 12 ft 9 kts 97°
2026-04-30 22:44 40.84051 -74.06023 13 ft 4 kts
2026-04-30 22:45 40.85627 -74.05867 622 ft 164 kts
2026-04-30 22:45 40.88255 -74.05402 2380 ft 204 kts
2026-04-30 22:46 40.91392 -74.05064 3685 ft 248 kts 354°
2026-04-30 22:47 40.98234 -74.07308 5468 ft 260 kts 343°
2026-04-30 22:47 41.01726 -74.08503 5649 ft 263 kts 342°
2026-04-30 22:48 41.05005 -74.09661 7576 ft 228 kts 342°
2026-04-30 22:49 41.09737 -74.11337 10144 ft 246 kts 341°
2026-04-30 22:49 41.15174 -74.10301 10610 ft 290 kts 34°
2026-04-30 22:50 41.18608 -74.00962 10625 ft 275 kts 75°
2026-04-30 22:51 41.19627 -73.96383 10492 ft 251 kts 76°
2026-04-30 22:51 41.20602 -73.91958 11034 ft 249 kts 76°
2026-04-30 22:52 41.21087 -73.89751 11902 ft 251 kts 76°
2026-04-30 22:52 41.22079 -73.85243 13415 ft 257 kts 77°
2026-04-30 22:53 41.23094 -73.80623 14614 ft 265 kts 76°
2026-04-30 22:53 41.24141 -73.75856 15703 ft 272 kts 76°
2026-04-30 22:53 41.24674 -73.73421 16212 ft 276 kts 75°
2026-04-30 22:54 41.25758 -73.68465 16821 ft 287 kts 75°
2026-04-30 22:55 41.27479 -73.60565 16839 ft 316 kts 75°
2026-04-30 22:55 41.27615 -73.54731 16842 ft 320 kts 102°
2026-04-30 22:56 41.26902 -73.48884 16841 ft 320 kts 101°
2026-04-30 22:56 41.25854 -73.40155 16836 ft 320 kts 101°
2026-04-30 22:57 41.25149 -73.34332 16834 ft 319 kts 102°
2026-04-30 22:57 41.24444 -73.28523 16847 ft 318 kts 102°
2026-04-30 22:58 41.23736 -73.22726 16840 ft 318 kts 102°
2026-04-30 22:59 41.22674 -73.14065 16840 ft 316 kts 102°
2026-04-30 22:59 41.21597 -73.05327 15667 ft 323 kts 102°